,,PA_Meas_PMT16A,,PR_Meas_QMR101_102,,RH_Meas_QMH101,,SR_Meas_QMS101,,TA_Meas_QMH101,,GenWind,,GenWind,
time,status,PA,status,PR,status,RH,status,SR,status,TA,status,DirAvg,status,SpdAvg,
2011-04-07, 00:00:04,VALID,919.06,VALID,0,VALID,95.8721,VALID,0,VALID,19.3279,VALID,42,VALID,0.300781,
2011-04-07, 00:01:04,VALID,919.065,VALID,0,VALID,96.055,VALID,0,VALID,19.3489,VALID,42,VALID,0.322266,
2011-04-07, 00:02:04,VALID,919.031,VALID,0,VALID,96.2228,VALID,0,VALID,19.3864,VALID,42,VALID,0.277734,
2011-04-07, 00:03:04,VALID,919.046,VALID,0,VALID,96.2837,VALID,0.107441,VALID,19.4463,VALID,42,VALID,0.0902344,
2011-04-07, 00:04:04,VALID,919.043,VALID,0,VALID,96.3371,VALID,0,VALID,19.4868,VALID,42,VALID,0.0015625,
2011-04-07, 00:05:04,VALID,919.069,VALID,0,VALID,96.3752,VALID,0,VALID,19.4853,VALID,42,VALID,0.128516,
2011-04-07, 00:06:04,VALID,919.021,VALID,0,VALID,96.4133,VALID,0,VALID,19.5273,VALID,42,VALID,0.532812,
2011-04-07, 00:07:04,VALID,919.009,VALID,0,VALID,96.4362,VALID,0,VALID,19.5048,VALID,42,VALID,0.495313,
2011-04-07, 00:08:04,VALID,918.994,VALID,0,VALID,96.4591,VALID,0,VALID,19.5273,VALID,42,VALID,0.610156,
2011-04-07, 00:09:04,VALID,918.963,VALID,0,VALID,96.4972,VALID,0,VALID,19.5468,VALID,42,VALID,0.489062,
2011-04-07, 00:10:04,VALID,918.949,VALID,0,VALID,96.5277,VALID,0,VALID,19.6083,VALID,42,VALID,0.0558594,
2011-04-07, 00:11:04,VALID,918.948,VALID,0,VALID,96.5582,VALID,0,VALID,19.6278,VALID,42,VALID,0.0773437,
2011-04-07, 00:12:04,VALID,918.922,VALID,0,VALID,96.5201,VALID,0,VALID,19.5858,VALID,42,VALID,0,
2011-04-07, 00:13:04,VALID,918.925,VALID,0,VALID,96.4972,VALID,0,VALID,19.5663,VALID,42,VALID,0,
2011-04-07, 00:14:04,VALID,918.922,VALID,0,VALID,96.4819,VALID,0,VALID,19.4883,VALID,42,VALID,0,
2011-04-07, 00:15:04,VALID,918.934,VALID,0,VALID,96.4743,VALID,0,VALID,19.4478,VALID,42,VALID,0,
2011-04-07, 00:16:04,VALID,918.954,VALID,0,VALID,96.4286,VALID,0,VALID,19.4718,VALID,42,VALID,0,
2011-04-07, 00:17:04,VALID,918.962,VALID,0,VALID,96.4667,VALID,0,VALID,19.3908,VALID,42,VALID,0.524219,
2011-04-07, 00:18:04,VALID,918.948,VALID,0,VALID,96.5124,VALID,0,VALID,19.3489,VALID,42,VALID,0.665625,
2011-04-07, 00:19:04,VALID,918.983,VALID,0,VALID,96.5353,VALID,0,VALID,19.4103,VALID,42,VALID,0.528125,
2011-04-07, 00:20:04,VALID,919.016,VALID,0,VALID,96.5734,VALID,0,VALID,19.3908,VALID,42,VALID,0.598047,
2011-04-07, 00:21:04,VALID,919.012,VALID,0,VALID,96.5429,VALID,0.107441,VALID,19.3908,VALID,42,VALID,0.545313,
2011-04-07, 00:22:04,VALID,919.014,VALID,0,VALID,96.5429,VALID,0,VALID,19.3503,VALID,42,VALID,0.687109,
2011-04-07, 00:23:04,VALID,918.965,VALID,0,VALID,96.5658,VALID,0,VALID,19.3713,VALID,42,VALID,0.607422,
2011-04-07, 00:24:04,VALID,918.944,VALID,0,VALID,96.6192,VALID,0,VALID,19.3728,VALID,42,VALID,0.747266,
2011-04-07, 00:25:04,VALID,918.943,VALID,0,VALID,96.642,VALID,0.107441,VALID,19.3698,VALID,42,VALID,0.938672,
2011-04-07, 00:26:04,VALID,918.923,VALID,0,VALID,96.6954,VALID,0.107441,VALID,19.3669,VALID,42,VALID,0.904297,
2011-04-07, 00:27:04,VALID,918.898,VALID,0,VALID,96.6954,VALID,0,VALID,19.3864,VALID,42,VALID,1.05391,
2011-04-07, 00:28:04,VALID,918.874,VALID,0,VALID,96.7411,VALID,0,VALID,19.4268,VALID,42,VALID,1.24258,
2011-04-07, 00:29:04,VALID,918.882,VALID,0,VALID,96.7869,VALID,0,VALID,19.4853,VALID,42,VALID,1.00195,
2011-04-07, 00:30:04,VALID,918.898,VALID,0,VALID,96.8098,VALID,0,VALID,19.5663,VALID,42,VALID,0.636328,
2011-04-07, 00:31:04,VALID,918.891,VALID,0,VALID,96.8326,VALID,0,VALID,19.6038,VALID,42,VALID,0.233594,
2011-04-07, 00:32:04,VALID,918.881,VALID,0,VALID,96.8021,VALID,0,VALID,19.5843,VALID,42,VALID,0.327344,
2011-04-07, 00:33:04,VALID,918.846,VALID,0,VALID,96.7411,VALID,0,VALID,19.5633,VALID,42,VALID,0.45,
2011-04-07, 00:34:04,VALID,918.869,VALID,0,VALID,96.7716,VALID,0,VALID,19.5468,VALID,42,VALID,0.300781,
2011-04-07, 00:35:04,VALID,918.805,VALID,0,VALID,96.8479,VALID,0,VALID,19.6248,VALID,42,VALID,0.754687,
2011-04-07, 00:36:04,VALID,918.797,VALID,0,VALID,96.8326,VALID,0,VALID,19.5843,VALID,42,VALID,0.721484,
2011-04-07, 00:37:04,VALID,918.758,VALID,0,VALID,96.8326,VALID,0,VALID,19.6053,VALID,42,VALID,0.460547,
2011-04-07, 00:38:04,VALID,918.736,VALID,0,VALID,96.8403,VALID,0,VALID,19.6068,VALID,42,VALID,0.525781,
2011-04-07, 00:39:04,VALID,918.739,VALID,0,VALID,96.7869,VALID,0,VALID,19.5663,VALID,42,VALID,0.361719,
2011-04-07, 00:40:04,VALID,918.755,VALID,0,VALID,96.825,VALID,0,VALID,19.5678,VALID,42,VALID,0.454297,
2011-04-07, 00:41:04,VALID,918.742,VALID,0,VALID,96.8098,VALID,0,VALID,19.5063,VALID,42,VALID,0.540625,
2011-04-07, 00:42:04,VALID,918.744,VALID,0,VALID,96.8021,VALID,0,VALID,19.5078,VALID,42,VALID,0.151562,
2011-04-07, 00:43:04,VALID,918.765,VALID,0,VALID,96.8707,VALID,0,VALID,19.5093,VALID,42,VALID,0.642969,
2011-04-07, 00:44:04,VALID,918.768,VALID,0,VALID,96.8784,VALID,0,VALID,19.4673,VALID,42,VALID,0.557031,
2011-04-07, 00:45:04,VALID,918.76,VALID,0,VALID,96.886,VALID,0,VALID,19.4868,VALID,42,VALID,0.661328,
2011-04-07, 00:46:04,VALID,918.709,VALID,0,VALID,96.8555,VALID,0,VALID,19.4898,VALID,42,VALID,0.557031,
2011-04-07, 00:47:04,VALID,918.716,VALID,0,VALID,96.8631,VALID,0,VALID,19.4283,VALID,42,VALID,0.671484,
2011-04-07, 00:48:04,VALID,918.681,VALID,0,VALID,96.8784,VALID,0,VALID,19.4298,VALID,42,VALID,0.633203,
2011-04-07, 00:49:04,VALID,918.661,VALID,0,VALID,96.8631,VALID,0,VALID,19.4103,VALID,42,VALID,0.758984,
2011-04-07, 00:50:04,VALID,918.615,VALID,0,VALID,96.9165,VALID,0,VALID,19.3698,VALID,42,VALID,0.802734,
2011-04-07, 00:51:04,VALID,918.61,VALID,0,VALID,96.9165,VALID,0,VALID,19.3684,VALID,42,VALID,0.675781,
2011-04-07, 00:52:04,VALID,918.596,VALID,0,VALID,96.9165,VALID,0.107441,VALID,19.3893,VALID,42,VALID,0.622656,
2011-04-07, 00:53:04,VALID,918.593,VALID,0,VALID,96.8479,VALID,0.107441,VALID,19.3323,VALID,42,VALID,0.591406,
2011-04-07, 00:54:04,VALID,918.608,VALID,0,VALID,96.825,VALID,0.107441,VALID,19.2918,VALID,42,VALID,0.555078,
2011-04-07, 00:55:04,VALID,918.602,VALID,0,VALID,96.825,VALID,0,VALID,19.1929,VALID,42,VALID,0.608203,
2011-04-07, 00:56:04,VALID,918.622,VALID,0,VALID,96.8479,VALID,0.107441,VALID,19.1734,VALID,42,VALID,0.666797,
2011-04-07, 00:57:04,VALID,918.621,VALID,0,VALID,96.8784,VALID,0.107441,VALID,19.1763,VALID,42,VALID,0.551953,
2011-04-07, 00:58:04,VALID,918.64,VALID,0,VALID,96.9394,VALID,0.107441,VALID,19.1344,VALID,42,VALID,0.495703,
2011-04-07, 00:59:04,VALID,918.588,VALID,0,VALID,97.0232,VALID,0.107441,VALID,19.2139,VALID,42,VALID,0.771094,
2011-04-07, 01:00:04,VALID,918.567,VALID,0,VALID,97.0385,VALID,0.107441,VALID,19.2124,VALID,42,VALID,0.456641,
2011-04-07, 01:01:04,VALID,918.58,VALID,0,VALID,97.0385,VALID,0,VALID,19.2528,VALID,42,VALID,0.682422,
2011-04-07, 01:02:04,VALID,918.578,VALID,0,VALID,97.0385,VALID,0,VALID,19.2723,VALID,42,VALID,0.774219,
2011-04-07, 01:03:04,VALID,918.59,VALID,0,VALID,97.0156,VALID,0,VALID,19.3338,VALID,42,VALID,0.570703,
2011-04-07, 01:04:04,VALID,918.605,VALID,0,VALID,97.0461,VALID,0.107441,VALID,19.2918,VALID,42,VALID,0.429688,
2011-04-07, 01:05:04,VALID,918.617,VALID,0,VALID,97.0385,VALID,0.107441,VALID,19.2514,VALID,42,VALID,0.697656,
2011-04-07, 01:06:04,VALID,918.595,VALID,0,VALID,97.0537,VALID,0,VALID,19.3143,VALID,42,VALID,0.762109,
2011-04-07, 01:07:04,VALID,918.618,VALID,0,VALID,97.0385,VALID,0,VALID,19.3338,VALID,42,VALID,0.466016,
2011-04-07, 01:08:04,VALID,918.566,VALID,0,VALID,97.0537,VALID,0,VALID,19.2723,VALID,42,VALID,0.46875,
2011-04-07, 01:09:04,VALID,918.57,VALID,0,VALID,97.069,VALID,0,VALID,19.3113,VALID,42,VALID,0.523438,
2011-04-07, 01:10:04,VALID,918.578,VALID,0,VALID,97.0537,VALID,0,VALID,19.2709,VALID,42,VALID,0.569531,
2011-04-07, 01:11:04,VALID,918.571,VALID,0,VALID,97.0232,VALID,0,VALID,19.2304,VALID,42,VALID,0.547656,
2011-04-07, 01:12:04,VALID,918.543,VALID,0,VALID,96.9698,VALID,0,VALID,19.1359,VALID,42,VALID,0.602734,
2011-04-07, 01:13:04,VALID,918.576,VALID,0,VALID,97.008,VALID,0,VALID,19.1373,VALID,42,VALID,0.634766,
2011-04-07, 01:14:04,VALID,918.544,VALID,0,VALID,97.0461,VALID,0,VALID,19.1792,VALID,42,VALID,0.936328,
2011-04-07, 01:15:04,VALID,918.518,VALID,0,VALID,97.0537,VALID,0,VALID,19.1778,VALID,42,VALID,0.739844,
2011-04-07, 01:16:04,VALID,918.493,VALID,0,VALID,97.0766,VALID,0,VALID,19.2602,VALID,42,VALID,0.522266,
2011-04-07, 01:17:04,VALID,918.496,VALID,0,VALID,97.0842,VALID,0,VALID,19.1539,VALID,42,VALID,0.451172,
2011-04-07, 01:18:04,VALID,918.493,VALID,0,VALID,97.0994,VALID,0,VALID,19.1958,VALID,42,VALID,0.261719,
2011-04-07, 01:19:04,VALID,918.489,VALID,0,VALID,97.1071,VALID,0,VALID,19.2363,VALID,42,VALID,0.350781,
2011-04-07, 01:20:04,VALID,918.448,VALID,0,VALID,97.0156,VALID,0,VALID,19.1388,VALID,42,VALID,0.628125,
2011-04-07, 01:21:04,VALID,918.439,VALID,0,VALID,97.0156,VALID,0,VALID,19.0384,VALID,42,VALID,0.605469,
2011-04-07, 01:22:04,VALID,918.413,VALID,0,VALID,96.9775,VALID,0.107441,VALID,18.9575,VALID,42,VALID,0.539063,
2011-04-07, 01:23:04,VALID,918.428,VALID,0,VALID,96.8479,VALID,0.107441,VALID,18.9424,VALID,42,VALID,0.666797,
2011-04-07, 01:24:04,VALID,918.386,VALID,0,VALID,96.886,VALID,0.107441,VALID,18.8045,VALID,42,VALID,0.754297,
2011-04-07, 01:25:04,VALID,918.386,VALID,0,VALID,97.0385,VALID,0.107441,VALID,18.824,VALID,42,VALID,0.554688,
2011-04-07, 01:26:04,VALID,918.369,VALID,0,VALID,97.0994,VALID,0,VALID,18.8434,VALID,42,VALID,0.610547,
2011-04-07, 01:27:04,VALID,918.34,VALID,0,VALID,97.0994,VALID,0.107441,VALID,18.8629,VALID,42,VALID,0.520703,
2011-04-07, 01:28:04,VALID,918.37,VALID,0,VALID,97.1223,VALID,0.107441,VALID,18.8615,VALID,42,VALID,0.530469,
2011-04-07, 01:29:04,VALID,918.378,VALID,0,VALID,97.1376,VALID,0.107441,VALID,18.9424,VALID,42,VALID,0.546094,
2011-04-07, 01:30:04,VALID,918.353,VALID,0,VALID,97.1452,VALID,0.107441,VALID,18.9409,VALID,42,VALID,0.433984,
2011-04-07, 01:31:04,VALID,918.348,VALID,0,VALID,97.1376,VALID,0.107441,VALID,18.9814,VALID,42,VALID,0.370703,
2011-04-07, 01:32:04,VALID,918.332,VALID,0,VALID,97.1528,VALID,0.107441,VALID,18.9409,VALID,42,VALID,0.461328,
2011-04-07, 01:33:04,VALID,918.327,VALID,0,VALID,97.1452,VALID,0,VALID,18.92,VALID,42,VALID,0.371094,
2011-04-07, 01:34:04,VALID,918.299,VALID,0,VALID,97.1604,VALID,0,VALID,19.0037,VALID,42,VALID,0.330859,
2011-04-07, 01:35:04,VALID,918.285,VALID,0,VALID,97.1452,VALID,0.107441,VALID,18.9633,VALID,42,VALID,0.469141,
2011-04-07, 01:36:04,VALID,918.279,VALID,0,VALID,97.1376,VALID,0,VALID,18.9243,VALID,42,VALID,0.514453,
2011-04-07, 01:37:04,VALID,918.291,VALID,0,VALID,97.1452,VALID,0,VALID,18.8839,VALID,42,VALID,0.560547,
2011-04-07, 01:38:04,VALID,918.275,VALID,0,VALID,97.1223,VALID,0,VALID,18.8449,VALID,42,VALID,0.549219,
2011-04-07, 01:39:04,VALID,918.256,VALID,0,VALID,97.1147,VALID,0,VALID,18.8073,VALID,42,VALID,0.417578,
2011-04-07, 01:40:04,VALID,918.238,VALID,0,VALID,97.0994,VALID,0,VALID,18.7474,VALID,42,VALID,0.467578,
2011-04-07, 01:41:04,VALID,918.199,VALID,0,VALID,97.1528,VALID,0,VALID,18.7279,VALID,42,VALID,0.466797,
2011-04-07, 01:42:04,VALID,918.177,VALID,0,VALID,97.1528,VALID,0,VALID,18.8073,VALID,42,VALID,0.290234,
2011-04-07, 01:43:04,VALID,918.145,VALID,0,VALID,97.1681,VALID,0,VALID,18.8254,VALID,42,VALID,0.233984,
2011-04-07, 01:44:04,VALID,918.141,VALID,0,VALID,97.1833,VALID,0,VALID,18.8644,VALID,42,VALID,0,
2011-04-07, 01:45:04,VALID,918.133,VALID,0,VALID,97.1909,VALID,0,VALID,18.9034,VALID,42,VALID,0,
2011-04-07, 01:46:04,VALID,918.104,VALID,0,VALID,97.2214,VALID,0,VALID,18.9424,VALID,42,VALID,0.301953,
2011-04-07, 01:47:04,VALID,918.096,VALID,0,VALID,97.2138,VALID,0,VALID,18.9814,VALID,42,VALID,0.587109,
2011-04-07, 01:48:04,VALID,918.065,VALID,0,VALID,97.2138,VALID,0,VALID,19.0008,VALID,42,VALID,0.673437,
2011-04-07, 01:49:04,VALID,918.068,VALID,0,VALID,97.2214,VALID,0,VALID,19.0398,VALID,42,VALID,0.915625,
2011-04-07, 01:50:04,VALID,918.032,VALID,0,VALID,97.229,VALID,0,VALID,19.0203,VALID,42,VALID,1.01016,
2011-04-07, 01:51:04,VALID,918.006,VALID,0,VALID,97.2138,VALID,0,VALID,19.0203,VALID,42,VALID,1.07578,
2011-04-07, 01:52:04,VALID,918.007,VALID,0,VALID,97.1986,VALID,0,VALID,19.0398,VALID,42,VALID,0.830469,
2011-04-07, 01:53:04,VALID,918.012,VALID,0,VALID,97.2062,VALID,0,VALID,19.0398,VALID,42,VALID,0.846094,
2011-04-07, 01:54:04,VALID,917.988,VALID,0,VALID,97.2062,VALID,0,VALID,19.0203,VALID,42,VALID,0.701172,
2011-04-07, 01:55:04,VALID,917.962,VALID,0,VALID,97.2138,VALID,0,VALID,19.0608,VALID,42,VALID,0.81875,
2011-04-07, 01:56:04,VALID,917.916,VALID,0,VALID,97.2214,VALID,0,VALID,19.1388,VALID,42,VALID,0.946484,
2011-04-07, 01:57:04,VALID,917.872,VALID,0,VALID,97.229,VALID,0,VALID,19.1164,VALID,42,VALID,0.936719,
2011-04-07, 01:58:04,VALID,917.854,VALID,0,VALID,97.2443,VALID,0,VALID,19.1583,VALID,42,VALID,0.727344,
2011-04-07, 01:59:04,VALID,917.825,VALID,0,VALID,97.2367,VALID,0,VALID,19.1763,VALID,42,VALID,0.63125,
2011-04-07, 02:00:04,VALID,917.833,VALID,0,VALID,97.1909,VALID,0,VALID,19.1778,VALID,42,VALID,0.507031,
2011-04-07, 02:01:04,VALID,917.805,VALID,0,VALID,97.1833,VALID,0,VALID,19.0413,VALID,42,VALID,0.533984,
2011-04-07, 02:02:04,VALID,917.826,VALID,0,VALID,97.1909,VALID,0,VALID,18.9186,VALID,42,VALID,0.404297,
2011-04-07, 02:03:04,VALID,917.838,VALID,0,VALID,97.1299,VALID,0,VALID,18.9257,VALID,42,VALID,0.339063,
2011-04-07, 02:04:04,VALID,917.821,VALID,0,VALID,97.1528,VALID,0,VALID,18.8867,VALID,42,VALID,0.210547,
2011-04-07, 02:05:04,VALID,917.804,VALID,0,VALID,97.1681,VALID,0,VALID,18.8839,VALID,42,VALID,0,
2011-04-07, 02:06:04,VALID,917.802,VALID,0,VALID,97.1757,VALID,0.107441,VALID,18.9424,VALID,42,VALID,0,
2011-04-07, 02:07:04,VALID,917.831,VALID,0,VALID,97.1986,VALID,0.107441,VALID,18.881,VALID,42,VALID,0.207813,
2011-04-07, 02:08:04,VALID,917.841,VALID,0,VALID,97.1833,VALID,0,VALID,18.9214,VALID,42,VALID,0.424219,
2011-04-07, 02:09:04,VALID,917.841,VALID,0,VALID,97.1909,VALID,0,VALID,18.9019,VALID,42,VALID,0.322656,
2011-04-07, 02:10:04,VALID,917.832,VALID,0,VALID,97.2214,VALID,0,VALID,18.9409,VALID,42,VALID,0.49375,
2011-04-07, 02:11:04,VALID,917.868,VALID,0,VALID,97.2214,VALID,0,VALID,18.9814,VALID,42,VALID,0.355469,
2011-04-07, 02:12:04,VALID,917.91,VALID,0,VALID,97.2214,VALID,0,VALID,18.9994,VALID,42,VALID,0.428125,
2011-04-07, 02:13:04,VALID,917.884,VALID,0,VALID,97.2443,VALID,0.107441,VALID,18.9994,VALID,42,VALID,0.637109,
2011-04-07, 02:14:04,VALID,917.923,VALID,0,VALID,97.2367,VALID,0.107441,VALID,19.0008,VALID,42,VALID,0.365234,
2011-04-07, 02:15:04,VALID,917.956,VALID,0,VALID,97.229,VALID,0.107441,VALID,18.9604,VALID,42,VALID,0.267969,
2011-04-07, 02:16:04,VALID,917.93,VALID,0,VALID,97.2214,VALID,0,VALID,18.9799,VALID,42,VALID,0.208984,
2011-04-07, 02:17:04,VALID,917.904,VALID,0,VALID,97.2138,VALID,0.107441,VALID,18.9799,VALID,42,VALID,0.183594,
2011-04-07, 02:18:04,VALID,917.889,VALID,0,VALID,97.1376,VALID,0.107441,VALID,18.8629,VALID,42,VALID,0.178906,
2011-04-07, 02:19:04,VALID,917.879,VALID,0,VALID,97.1299,VALID,0,VALID,18.6875,VALID,42,VALID,0.458984,
2011-04-07, 02:20:04,VALID,917.858,VALID,0,VALID,97.1147,VALID,0,VALID,18.7279,VALID,42,VALID,0.580469,
2011-04-07, 02:21:04,VALID,917.87,VALID,0,VALID,97.1833,VALID,0,VALID,18.8254,VALID,42,VALID,0.605469,
2011-04-07, 02:22:04,VALID,917.855,VALID,0,VALID,97.1909,VALID,0,VALID,18.9034,VALID,42,VALID,0.260156,
2011-04-07, 02:23:04,VALID,917.873,VALID,0,VALID,97.2138,VALID,0,VALID,18.9633,VALID,42,VALID,0.0808594,
2011-04-07, 02:24:04,VALID,917.886,VALID,0,VALID,97.2214,VALID,0,VALID,18.881,VALID,42,VALID,0.0417969,
2011-04-07, 02:25:04,VALID,917.89,VALID,0,VALID,97.2214,VALID,0,VALID,18.9619,VALID,42,VALID,0.408203,
2011-04-07, 02:26:04,VALID,917.903,VALID,0,VALID,97.2214,VALID,0,VALID,18.9409,VALID,42,VALID,0.396094,
2011-04-07, 02:27:04,VALID,917.878,VALID,0,VALID,97.2214,VALID,0,VALID,18.9214,VALID,42,VALID,0.714844,
2011-04-07, 02:28:04,VALID,917.867,VALID,0,VALID,97.2138,VALID,0,VALID,18.9214,VALID,42,VALID,0.848828,
2011-04-07, 02:29:04,VALID,917.87,VALID,0,VALID,97.2214,VALID,0.107441,VALID,18.9604,VALID,42,VALID,1.03203,
2011-04-07, 02:30:04,VALID,917.85,VALID,0,VALID,97.229,VALID,0.107441,VALID,18.9785,VALID,42,VALID,0.739062,
2011-04-07, 02:31:04,VALID,917.836,VALID,0,VALID,97.2138,VALID,0,VALID,18.9604,VALID,42,VALID,1.05,
2011-04-07, 02:32:04,VALID,917.846,VALID,0,VALID,97.229,VALID,0.107441,VALID,18.9604,VALID,42,VALID,0.878516,
2011-04-07, 02:33:04,VALID,917.864,VALID,0,VALID,97.2214,VALID,0,VALID,18.9409,VALID,42,VALID,0.945313,
2011-04-07, 02:34:04,VALID,917.897,VALID,0,VALID,97.2138,VALID,0,VALID,18.9409,VALID,42,VALID,0.788281,
2011-04-07, 02:35:04,VALID,917.894,VALID,0,VALID,97.2214,VALID,0,VALID,18.9604,VALID,42,VALID,0.774609,
2011-04-07, 02:36:04,VALID,917.928,VALID,0,VALID,97.2062,VALID,0,VALID,18.9604,VALID,42,VALID,0.567187,
2011-04-07, 02:37:04,VALID,917.931,VALID,0,VALID,97.229,VALID,0.107441,VALID,18.9799,VALID,42,VALID,0.770703,
2011-04-07, 02:38:04,VALID,917.929,VALID,0,VALID,97.2138,VALID,0,VALID,18.9799,VALID,42,VALID,1.01289,
2011-04-07, 02:39:04,VALID,917.936,VALID,0,VALID,97.2367,VALID,0.107441,VALID,18.9604,VALID,42,VALID,0.751953,
2011-04-07, 02:40:04,VALID,917.932,VALID,0,VALID,97.229,VALID,0.107441,VALID,18.9799,VALID,42,VALID,0.575,
2011-04-07, 02:41:04,VALID,917.923,VALID,0,VALID,97.229,VALID,0,VALID,18.9604,VALID,42,VALID,1.03945,
2011-04-07, 02:42:04,VALID,917.844,VALID,0,VALID,97.229,VALID,0,VALID,18.9409,VALID,42,VALID,0.786328,
2011-04-07, 02:43:04,VALID,917.852,VALID,0,VALID,97.2214,VALID,0,VALID,18.9424,VALID,42,VALID,0.618359,
2011-04-07, 02:44:04,VALID,917.85,VALID,0,VALID,97.2138,VALID,0,VALID,18.9424,VALID,42,VALID,0.635938,
2011-04-07, 02:45:04,VALID,917.816,VALID,0,VALID,97.2214,VALID,0,VALID,18.9214,VALID,42,VALID,0.605469,
2011-04-07, 02:46:04,VALID,917.825,VALID,0,VALID,97.2367,VALID,0,VALID,18.9424,VALID,42,VALID,0.651953,
2011-04-07, 02:47:04,VALID,917.787,VALID,0,VALID,97.229,VALID,0.107441,VALID,18.9019,VALID,42,VALID,0.612109,
2011-04-07, 02:48:04,VALID,917.803,VALID,0,VALID,97.2367,VALID,0,VALID,18.8839,VALID,42,VALID,0.396875,
2011-04-07, 02:49:04,VALID,917.796,VALID,0,VALID,97.2367,VALID,0,VALID,18.8839,VALID,42,VALID,0.561719,
2011-04-07, 02:50:04,VALID,917.837,VALID,0,VALID,97.2443,VALID,0,VALID,18.8629,VALID,42,VALID,0.652344,
2011-04-07, 02:51:04,VALID,917.799,VALID,0,VALID,97.2138,VALID,0,VALID,18.8629,VALID,42,VALID,0.314063,
2011-04-07, 02:52:04,VALID,917.793,VALID,0,VALID,97.2367,VALID,0,VALID,18.8629,VALID,42,VALID,0.298047,
2011-04-07, 02:53:04,VALID,917.805,VALID,0,VALID,97.2062,VALID,0,VALID,18.9034,VALID,42,VALID,0.127734,
2011-04-07, 02:54:04,VALID,917.798,VALID,0,VALID,97.2214,VALID,0,VALID,18.8839,VALID,42,VALID,0.00117188,
2011-04-07, 02:55:04,VALID,917.751,VALID,0,VALID,97.1986,VALID,0,VALID,18.8839,VALID,42,VALID,0,
2011-04-07, 02:56:04,VALID,917.749,VALID,0,VALID,97.2062,VALID,0,VALID,18.8839,VALID,42,VALID,0.298047,
2011-04-07, 02:57:04,VALID,917.722,VALID,0,VALID,97.2138,VALID,0,VALID,18.8839,VALID,42,VALID,0.0640625,
2011-04-07, 02:58:04,VALID,917.701,VALID,0,VALID,97.2062,VALID,0,VALID,18.8824,VALID,42,VALID,0,
2011-04-07, 02:59:04,VALID,917.665,VALID,0,VALID,97.1986,VALID,0,VALID,18.8824,VALID,42,VALID,0,
2011-04-07, 03:00:04,VALID,917.661,VALID,0,VALID,97.2062,VALID,0,VALID,18.9034,VALID,42,VALID,0,
2011-04-07, 03:01:04,VALID,917.651,VALID,0,VALID,97.1986,VALID,0.107441,VALID,18.8839,VALID,42,VALID,0,
2011-04-07, 03:02:04,VALID,917.614,VALID,0,VALID,97.1986,VALID,0,VALID,18.8644,VALID,42,VALID,0.217578,
2011-04-07, 03:03:04,VALID,917.586,VALID,0,VALID,97.1757,VALID,0,VALID,18.8644,VALID,42,VALID,0.290234,
2011-04-07, 03:04:04,VALID,917.567,VALID,0,VALID,97.1833,VALID,0,VALID,18.8449,VALID,42,VALID,0.204688,
2011-04-07, 03:05:04,VALID,917.549,VALID,0,VALID,97.1681,VALID,0,VALID,18.785,VALID,42,VALID,0.207031,
2011-04-07, 03:06:04,VALID,917.522,VALID,0,VALID,97.1604,VALID,0,VALID,18.7669,VALID,42,VALID,0.296875,
2011-04-07, 03:07:04,VALID,917.482,VALID,0,VALID,96.9317,VALID,0,VALID,18.6485,VALID,42,VALID,0.350391,
2011-04-07, 03:08:04,VALID,917.454,VALID,0,VALID,96.947,VALID,0,VALID,18.5914,VALID,42,VALID,0.163672,
2011-04-07, 03:09:04,VALID,917.473,VALID,0,VALID,96.9698,VALID,0,VALID,18.5525,VALID,42,VALID,0.0621094,
2011-04-07, 03:10:04,VALID,917.466,VALID,0,VALID,96.9927,VALID,0,VALID,18.5121,VALID,42,VALID,0.0488281,
2011-04-07, 03:11:04,VALID,917.458,VALID,0,VALID,97.0156,VALID,0,VALID,18.494,VALID,42,VALID,0,
2011-04-07, 03:12:04,VALID,917.46,VALID,0,VALID,97.0385,VALID,0,VALID,18.455,VALID,42,VALID,0.296094,
2011-04-07, 03:13:04,VALID,917.481,VALID,0,VALID,97.1071,VALID,0,VALID,18.455,VALID,42,VALID,0.526563,
2011-04-07, 03:14:04,VALID,917.473,VALID,0,VALID,97.1833,VALID,0,VALID,18.4745,VALID,42,VALID,0.868359,
2011-04-07, 03:15:04,VALID,917.47,VALID,0,VALID,97.1909,VALID,0,VALID,18.533,VALID,42,VALID,0.786328,
2011-04-07, 03:16:04,VALID,917.477,VALID,0,VALID,97.1452,VALID,0,VALID,18.494,VALID,42,VALID,0.794141,
2011-04-07, 03:17:04,VALID,917.482,VALID,0,VALID,97.1452,VALID,0,VALID,18.4745,VALID,42,VALID,0.746875,
2011-04-07, 03:18:04,VALID,917.46,VALID,0,VALID,97.1909,VALID,0,VALID,18.494,VALID,42,VALID,0.608594,
2011-04-07, 03:19:04,VALID,917.451,VALID,0,VALID,97.1986,VALID,0,VALID,18.5525,VALID,42,VALID,0.478906,
2011-04-07, 03:20:04,VALID,917.405,VALID,0,VALID,97.2062,VALID,0,VALID,18.5914,VALID,42,VALID,0.4125,
2011-04-07, 03:21:04,VALID,917.379,VALID,0,VALID,97.2138,VALID,0,VALID,18.6304,VALID,42,VALID,0.596094,
2011-04-07, 03:22:04,VALID,917.355,VALID,0,VALID,97.2062,VALID,0,VALID,18.668,VALID,42,VALID,0.619141,
2011-04-07, 03:23:04,VALID,917.328,VALID,0,VALID,97.2138,VALID,0,VALID,18.629,VALID,42,VALID,0.447266,
2011-04-07, 03:24:04,VALID,917.286,VALID,0,VALID,97.1986,VALID,0,VALID,18.5914,VALID,42,VALID,0.648828,
2011-04-07, 03:25:04,VALID,917.288,VALID,0,VALID,97.1909,VALID,0,VALID,18.6304,VALID,42,VALID,0.896875,
2011-04-07, 03:26:05,VALID,917.291,VALID,0,VALID,97.2138,VALID,0,VALID,18.6095,VALID,42,VALID,0.996094,
2011-04-07, 03:27:05,VALID,917.251,VALID,0,VALID,97.2062,VALID,0,VALID,18.629,VALID,42,VALID,0.764063,
2011-04-07, 03:28:05,VALID,917.234,VALID,0,VALID,97.2214,VALID,0,VALID,18.6889,VALID,42,VALID,0.825,
2011-04-07, 03:29:05,VALID,917.227,VALID,0,VALID,97.1833,VALID,0,VALID,18.629,VALID,42,VALID,0.766797,
2011-04-07, 03:30:05,VALID,917.178,VALID,0,VALID,97.2138,VALID,0,VALID,18.6889,VALID,42,VALID,0.949219,
2011-04-07, 03:31:05,VALID,917.16,VALID,0,VALID,97.1986,VALID,0,VALID,18.6694,VALID,42,VALID,0.777344,
2011-04-07, 03:32:05,VALID,917.136,VALID,0,VALID,97.1909,VALID,0,VALID,18.6889,VALID,42,VALID,0.880469,
2011-04-07, 03:33:05,VALID,917.147,VALID,0,VALID,97.2062,VALID,0,VALID,18.6471,VALID,42,VALID,0.621094,
2011-04-07, 03:34:05,VALID,917.128,VALID,0,VALID,97.1909,VALID,0,VALID,18.7084,VALID,42,VALID,0.523438,
2011-04-07, 03:35:05,VALID,917.104,VALID,0,VALID,97.2062,VALID,0,VALID,18.6889,VALID,42,VALID,0.442187,
2011-04-07, 03:36:05,VALID,917.119,VALID,0,VALID,97.2062,VALID,0,VALID,18.6666,VALID,42,VALID,0.223828,
2011-04-07, 03:37:05,VALID,917.131,VALID,0,VALID,97.1909,VALID,0,VALID,18.668,VALID,42,VALID,0,
2011-04-07, 03:38:05,VALID,917.164,VALID,0,VALID,97.1681,VALID,0,VALID,18.6499,VALID,42,VALID,0,
2011-04-07, 03:39:05,VALID,917.172,VALID,0,VALID,97.1681,VALID,0,VALID,18.6304,VALID,42,VALID,0,
2011-04-07, 03:40:05,VALID,917.172,VALID,0,VALID,97.1833,VALID,0.107441,VALID,18.6081,VALID,42,VALID,0,
2011-04-07, 03:41:05,VALID,917.191,VALID,0,VALID,97.1681,VALID,0,VALID,18.629,VALID,42,VALID,0.0222656,
2011-04-07, 03:42:05,VALID,917.215,VALID,0,VALID,97.1757,VALID,0,VALID,18.6875,VALID,42,VALID,0.164844,
2011-04-07, 03:43:05,VALID,917.209,VALID,0,VALID,97.1681,VALID,0,VALID,18.7084,VALID,42,VALID,0.111719,
2011-04-07, 03:44:05,VALID,917.239,VALID,0,VALID,97.1681,VALID,0,VALID,18.6889,VALID,42,VALID,0.337109,